SBU57 TFFJ-TNCS

Flight info

Callsign SBU57
Flight time 0h 17m
Altitude 4000
Route MODOR DCT CS200 DCT CS100
Aircraft C208/L-SDFGRY/C

Departure

Time 2026-04-21 11:32
Airport St. Jean Airport (TFFJ)

Arrival

Time 2026-04-21 11:50
Airport Juancho E. Yrausquin Airport (TNCS)
Time Latitude Longitude Altitude Speed Heading
2026-04-21 11:22 17.90372 -62.84501 40 ft 0 kts 88°
2026-04-21 11:28 17.90378 -62.84494 39 ft 3 kts
2026-04-21 11:28 17.90388 -62.84522 42 ft 7 kts 281°
2026-04-21 11:28 17.90390 -62.84588 48 ft 11 kts 267°
2026-04-21 11:28 17.90415 -62.84650 52 ft 7 kts 315°
2026-04-21 11:29 17.90433 -62.84645 48 ft 7 kts 84°
2026-04-21 11:29 17.90433 -62.84636 49 ft 0 kts 87°
2026-04-21 11:29 17.90435 -62.84599 48 ft 25 kts 88°
2026-04-21 11:29 17.90442 -62.84224 18 ft 75 kts 89°
2026-04-21 11:30 17.90455 -62.83845 22 ft 84 kts 85°
2026-04-21 11:30 17.90448 -62.84521 42 ft 0 kts 69°
2026-04-21 11:30 17.90434 -62.84542 44 ft 15 kts 273°
2026-04-21 11:31 17.90434 -62.84646 48 ft 6 kts 294°
2026-04-21 11:31 17.90433 -62.84649 52 ft 5 kts 88°
2026-04-21 11:31 17.90433 -62.84634 49 ft 13 kts 89°
2026-04-21 11:31 17.90440 -62.84318 26 ft 71 kts 89°
2026-04-21 11:32 17.90497 -62.83699 100 ft 94 kts 63°
2026-04-21 11:32 17.91100 -62.83515 388 ft 94 kts 358°
2026-04-21 11:32 17.91784 -62.83662 558 ft 105 kts 353°
2026-04-21 11:32 17.92502 -62.83845 768 ft 107 kts 350°
2026-04-21 11:33 17.93193 -62.84111 1035 ft 110 kts 332°
2026-04-21 11:33 17.93774 -62.84725 1168 ft 124 kts 313°
2026-04-21 11:33 17.94322 -62.85445 1325 ft 128 kts 310°
2026-04-21 11:33 17.94850 -62.86211 1480 ft 130 kts 307°
2026-04-21 11:34 17.95351 -62.87008 1634 ft 132 kts 305°
2026-04-21 11:34 17.95815 -62.87850 1786 ft 135 kts 294°
2026-04-21 11:34 17.95736 -62.88814 1928 ft 138 kts 235°
2026-04-21 11:34 17.94972 -62.89356 2080 ft 133 kts 197°
2026-04-21 11:35 17.94126 -62.89759 2236 ft 133 kts 200°
2026-04-21 11:35 17.93387 -62.90346 2355 ft 139 kts 233°
2026-04-21 11:35 17.93164 -62.91320 2478 ft 140 kts 277°
2026-04-21 11:35 17.93573 -62.92197 2609 ft 133 kts 321°
2026-04-21 11:36 17.94379 -62.92545 2730 ft 124 kts
2026-04-21 11:36 17.95191 -62.92805 2897 ft 130 kts 319°
2026-04-21 11:36 17.95436 -62.93694 3042 ft 132 kts 261°
2026-04-21 11:36 17.95111 -62.94586 3197 ft 131 kts 232°
2026-04-21 11:37 17.94574 -62.95356 3345 ft 130 kts 232°
2026-04-21 11:37 17.94083 -62.96156 3490 ft 130 kts 235°
2026-04-21 11:37 17.93617 -62.96966 3636 ft 129 kts 236°
2026-04-21 11:37 17.93160 -62.97780 3780 ft 129 kts 237°
2026-04-21 11:38 17.92710 -62.98593 3927 ft 129 kts 237°
2026-04-21 11:38 17.92252 -62.99422 3992 ft 137 kts 237°
2026-04-21 11:38 17.91763 -63.00314 4002 ft 145 kts 238°
2026-04-21 11:38 17.91249 -63.01250 4006 ft 150 kts 237°
2026-04-21 11:39 17.90720 -63.02204 4000 ft 153 kts 238°
2026-04-21 11:39 17.90197 -63.03158 4003 ft 152 kts 237°
2026-04-21 11:39 17.89668 -63.04117 4000 ft 151 kts 237°
2026-04-21 11:39 17.89146 -63.05068 3999 ft 149 kts 238°
2026-04-21 11:40 17.88625 -63.06011 4000 ft 148 kts 237°
2026-04-21 11:40 17.88110 -63.06944 3998 ft 148 kts 238°
2026-04-21 11:40 17.87595 -63.07878 3994 ft 148 kts 237°
2026-04-21 11:40 17.87005 -63.08756 3996 ft 147 kts 227°
2026-04-21 11:41 17.86359 -63.09588 3993 ft 147 kts 228°
2026-04-21 11:41 17.85721 -63.10424 3994 ft 148 kts 228°
2026-04-21 11:41 17.85079 -63.11271 3991 ft 147 kts 228°
2026-04-21 11:41 17.84440 -63.12111 3991 ft 147 kts 228°
2026-04-21 11:42 17.83805 -63.12948 3986 ft 147 kts 229°
2026-04-21 11:42 17.83170 -63.13786 3982 ft 148 kts 228°
2026-04-21 11:42 17.82526 -63.14633 3982 ft 149 kts 227°
2026-04-21 11:42 17.81882 -63.15474 3938 ft 152 kts 227°
2026-04-21 11:43 17.81193 -63.16377 3703 ft 162 kts 229°
2026-04-21 11:43 17.80481 -63.17313 3469 ft 166 kts 228°
2026-04-21 11:43 17.79754 -63.18267 3230 ft 168 kts 229°
2026-04-21 11:43 17.79022 -63.19229 2985 ft 169 kts 229°
2026-04-21 11:44 17.78293 -63.20189 2778 ft 167 kts 229°
2026-04-21 11:44 17.77566 -63.21144 2579 ft 168 kts 229°
2026-04-21 11:44 17.76840 -63.22098 2378 ft 167 kts 229°
2026-04-21 11:44 17.76116 -63.23049 2181 ft 167 kts 227°
2026-04-21 11:45 17.75391 -63.24001 1993 ft 166 kts 228°
2026-04-21 11:45 17.74696 -63.24919 1980 ft 156 kts 228°
2026-04-21 11:45 17.74022 -63.25801 1984 ft 154 kts 228°
2026-04-21 11:45 17.73360 -63.26672 1973 ft 152 kts 228°
2026-04-21 11:46 17.72670 -63.27501 1971 ft 150 kts 215°
2026-04-21 11:46 17.71732 -63.27912 1913 ft 144 kts 185°
2026-04-21 11:46 17.70886 -63.27869 1661 ft 108 kts 159°
2026-04-21 11:46 17.70256 -63.27572 1435 ft 90 kts 138°
2026-04-21 11:47 17.69826 -63.27176 1280 ft 78 kts 129°
2026-04-21 11:47 17.69474 -63.26837 1256 ft 65 kts 126°
2026-04-21 11:47 17.69079 -63.26486 1219 ft 77 kts 134°
2026-04-21 11:47 17.68617 -63.26156 1113 ft 84 kts 140°
2026-04-21 11:48 17.68126 -63.25838 1031 ft 84 kts 139°
2026-04-21 11:48 17.67605 -63.25523 1037 ft 89 kts 143°
2026-04-21 11:48 17.67037 -63.25230 1005 ft 94 kts 151°
2026-04-21 11:48 17.66411 -63.24987 953 ft 97 kts 149°
2026-04-21 11:49 17.65789 -63.24694 872 ft 95 kts 139°
2026-04-21 11:49 17.65375 -63.24258 709 ft 79 kts 109°
2026-04-21 11:49 17.65160 -63.23749 537 ft 74 kts 105°
2026-04-21 11:49 17.64982 -63.23253 376 ft 72 kts 103°
2026-04-21 11:50 17.64818 -63.22790 244 ft 64 kts 104°
2026-04-21 11:50 17.64661 -63.22371 178 ft 61 kts 107°
2026-04-21 11:50 17.64518 -63.22001 129 ft 31 kts 112°
2026-04-21 11:50 17.64482 -63.21901 124 ft 3 kts 75°
2026-04-21 11:51 17.64483 -63.21898 124 ft 1 kts 62°
2026-04-21 11:51 17.64485 -63.21890 124 ft 2 kts 107°
2026-04-21 11:51 17.64489 -63.21932 125 ft 14 kts 292°
2026-04-21 11:51 17.64521 -63.22012 131 ft 6 kts 276°
2026-04-21 11:52 17.64488 -63.22035 132 ft 6 kts 193°
2026-04-21 11:52 17.64481 -63.22036 132 ft 3 kts 194°
2026-04-21 11:52 17.64456 -63.22046 131 ft 3 kts 234°
2026-04-21 11:52 17.64455 -63.22049 132 ft 1 kts 273°
2026-04-21 11:53 17.64465 -63.22048 132 ft 3 kts 32°
2026-04-21 11:53 17.64468 -63.22047 132 ft 0 kts 38°